Waco, TX

12:54 PM CST on December 15, 2019 (GMT -0600)
Waco Regional

Weather History for KACT - November, 2019

Change the Weather History Date:

Tuesday, November 19, 2019

  Actual Average Record
Temperature  
Mean Temperature 60 °F 56 °F  
Max Temperature 81 °F 67 °F 87 °F (1949)
Min Temperature 38 °F 45 °F 24 °F (1903)
Degree Days  
Heating Degree Days 5 10  
Month to date heating degree days 257 132  
Since 1 July heating degree days 388 199  
Cooling Degree Days 0 1  
Month to date cooling degree days 12 31  
Year to date cooling degree days 3079 2787  
Growing Degree Days 9 (Base 50)    
Moisture  
Dew Point 46 °F    
Average Humidity 59    
Maximum Humidity 89    
Minimum Humidity 28    
Precipitation  
Precipitation 0.00 in 0.08 in 2.87 in (1992)
Month to date precipitation 0.07 1.90  
Year to date precipitation 32.03 31.02  
Snow  
Snow 0.00 in 0.00 in 0.00 in ()
Month to date snowfall 0.0 0.0  
Since 1 July snowfall 0.0 0.0  
Since 1 September snowfall 0.0 0.0  
Snow Depth 0.00 in    
Sea Level Pressure  
Sea Level Pressure 29.94 in    
Wind  
Wind Speed 7 mph (SSE)    
Max Wind Speed 16 mph    
Max Gust Speed 20 mph    
Visibility 10 miles    
Events      
T = Trace of Precipitation, MM = Missing Value Source: NWS Daily Summary

Daily Weather History Graph

Daily Weather History Graph

Search for Another Location

Airport or City:

Astronomy

Nov. 19, 2019 Rise Set
Actual Time 7:00 AM CST 5:28 PM CST
Civil Twilight 6:34 AM CST 5:54 PM CST
Nautical Twilight 6:04 AM CST 6:23 PM CST
Astronomical Twilight 5:35 AM CST 6:52 PM CST
Moon No Moon Rise 1:13 PM CST (11/19)
Length of Visible Light 11h 19m
Length of Day
10h 27m
Waning Gibbous, 51% of the Moon is Illuminated
Nov 19
Waning Gibbous
Nov 19
Last Quarter
Nov 26
New
Dec 4
First Quarter
Dec 11
Full

Hourly Weather History & Observations

Time (CST) Temp. Windchill Dew Point Humidity Pressure Visibility Wind Dir Wind Speed Gust Speed Precip Events Conditions
12:51 AM 45.0 °F - 39.0 °F 80% 29.94 in 10.0 mi Calm Calm - N/A   Clear
1:51 AM 45.0 °F 41.2 °F 39.9 °F 82% 29.93 in 10.0 mi SSW 6.9 mph - N/A   Clear
2:51 AM 48.0 °F - 41.0 °F 77% 29.93 in 10.0 mi SSW 3.5 mph - N/A   Clear
3:51 AM 42.1 °F - 39.0 °F 89% 29.94 in 10.0 mi Calm Calm - N/A   Clear
4:51 AM 41.0 °F - 37.9 °F 89% 29.95 in 10.0 mi Calm Calm - N/A   Clear
5:51 AM 43.0 °F - 39.9 °F 89% 29.95 in 10.0 mi Calm Calm - N/A   Clear
7:51 AM 46.0 °F 44.8 °F 43.0 °F 89% 29.99 in 10.0 mi South 3.5 mph - N/A   Clear
8:51 AM 55.0 °F - 46.0 °F 72% 30.00 in 10.0 mi South 3.5 mph - N/A   Clear
9:51 AM 62.1 °F - 46.9 °F 58% 30.00 in 10.0 mi South 4.6 mph - N/A   Clear
10:51 AM 68.0 °F - 46.9 °F 47% 29.99 in 10.0 mi South 4.6 mph - N/A   Clear
11:51 AM 72.0 °F - 48.0 °F 43% 29.97 in 10.0 mi Variable 3.5 mph - N/A   Clear
12:51 PM 77.0 °F - 46.9 °F 34% 29.94 in 10.0 mi SE 3.5 mph - N/A   Clear
1:51 PM 80.1 °F - 46.0 °F 30% 29.91 in 10.0 mi SSE 8.1 mph - N/A   Clear
2:51 PM 80.1 °F - 44.1 °F 28% 29.91 in 10.0 mi South 15.0 mph - N/A   Clear
3:51 PM 77.0 °F - 45.0 °F 32% 29.90 in 10.0 mi SSE 13.8 mph - N/A   Clear
5:51 PM 68.0 °F - 48.0 °F 49% 29.91 in 10.0 mi SSE 9.2 mph - N/A   Clear
6:51 PM 66.0 °F - 50.0 °F 56% 29.92 in 10.0 mi SSE 9.2 mph - N/A   Clear
7:51 PM 66.0 °F - 51.1 °F 59% 29.93 in 10.0 mi SSE 12.7 mph - N/A   Clear
8:51 PM 64.0 °F - 51.1 °F 63% 29.93 in 10.0 mi SSE 11.5 mph - N/A   Clear
9:51 PM 63.0 °F - 52.0 °F 67% 29.94 in 10.0 mi SSE 12.7 mph - N/A   Clear
10:51 PM 60.1 °F - 52.0 °F 75% 29.94 in 10.0 mi South 8.1 mph - N/A   Clear
11:51 PM 60.1 °F - 52.0 °F 75% 29.94 in 10.0 mi SSE 9.2 mph - N/A   Clear